[[{"header":{"parameterUnit":"m.s-1","parameterCategory":1,"la1":30.2991,"la2":30.254,"lo1":-89.0895,"lo2":-89.0444,"dy":0.0017,"dx":0.0017,"nx":28,"ny":28,"refTime":"2025-01-21T09:00:00:Z","depth":0,"parameterNumber":2,"parameterNumberName":"U-component_of_WINDS"},"data":[0,0,0,0,0,0,0,0,0,0,0,0,0,0,0,0,0,0,0,0,0,0,0,0,0,0,0,0,0,0,0,0,0,0,0,0,0,0,0,0,0,0,0,0,0,0,0,0,0,0,0,0,0,0,0,0,0,0,0.4872,0.4871,0,0.4832,0.4832,0.4832,0.485,0.4851,0.4852,0.4853,0.4808,0.4806,0.4803,0,0,0,0,0,0,0,0,0,0,0,0,0,0.4958,0.4956,0.4872,0.4871,0.4871,0.4833,0.4832,0.4831,0.485,0.4851,0.4853,0.4854,0.4808,0.4806,0.4803,0,0,0,0,0,0,0,0,0,0,0,0,0,0.4919,0.4955,0.4872,0.4876,0.4876,0.4833,0.4832,0.4831,0.485,0.4852,0.4853,0.4854,0.4809,0.4806,0.4803,0.4752,0,0,0.4793,0.4792,0,0,0,0,0,0,0,0,0.4921,0.4916,0.4876,0.4875,0.4875,0.4848,0.4846,0.4805,0.485,0.486,0.4853,0.4855,0.4819,0.4815,0.4805,0.475,0.4748,0.4793,0.4791,0.4789,0.4788,0,0,0,0,0,0,0,0.4924,0.4918,0.4856,0.4875,0.4875,0.4878,0.4874,0.4838,0.4831,0.4859,0.486,0.4855,0.482,0.4808,0.4804,0.4747,0.4793,0.479,0.4788,0.4787,0.4648,0.4646,0,0,0,0,0,0,0.4927,0.492,0.4857,0.4855,0.4903,0.4875,0.4871,0.4855,0.4832,0.483,0.4854,0.4857,0.4812,0.4807,0.4802,0.474,0.4789,0.4786,0.4784,0.465,0.4648,0.4646,0,0,0,0,0,0,0.4929,0.4922,0.4859,0.4888,0.488,0.4872,0.4854,0.4854,0.4842,0.4828,0.4827,0.4844,0.4814,0.4807,0.4765,0.4739,0.4785,0.4782,0.4652,0.4649,0.4647,0.4617,0,0,0,0,0,0,0.4932,0.4922,0.4904,0.4887,0.4879,0.4823,0.4853,0.4852,0.4837,0.4839,0.4818,0.4816,0.4814,0.4769,0.4761,0.4735,0.4779,0.4654,0.4651,0.4648,0.462,0.4614,0.4608,0,0,0,0,0,0.4935,0.4896,0.4903,0.4895,0.4856,0.4822,0.4817,0.4817,0.4835,0.4815,0.4807,0.4816,0.4744,0.4765,0.4756,0.4729,0.4656,0.4652,0.4648,0.4623,0.4615,0.4608,0,0,0,0,0,0,0.4908,0.4894,0.4901,0.4857,0.4841,0.4825,0.4801,0.4809,0.4786,0.4789,0.4789,0.4784,0.4741,0.4731,0.4755,0.4678,0.4702,0.4696,0.4686,0.4678,0.4673,0.4675,0.4777,0,0,0,0,0,0.4898,0.4873,0.4861,0.4823,0.4815,0.4809,0.4795,0.4797,0.4779,0.4772,0.476,0.4741,0.4714,0.4696,0.467,0.4619,0.4614,0.4596,0.459,0.4585,0.458,0.4551,0.4542,0.4633,0.4633,0.4633,0,0,0.4874,0.4864,0.4848,0.4817,0.4805,0.4778,0.4803,0.4773,0.4753,0.4767,0.4726,0.4717,0.4696,0.4649,0.4628,0.4639,0.4554,0.458,0.4577,0.4573,0.4546,0.4537,0.453,0.463,0.4631,0.4631,0,0,0.4818,0.4809,0.4775,0.4763,0.4745,0.4741,0.4733,0.4717,0.4712,0.4672,0.4682,0.4656,0.461,0.4594,0.458,0.4518,0.4525,0.451,0.4478,0.445,0.4442,0.4436,0.4413,0.4404,0.4504,0.4504,0.4504,0,0.4791,0.4753,0.4757,0.4726,0.4712,0.4725,0.4691,0.4678,0.4651,0.464,0.4654,0.4596,0.4582,0.4532,0.4517,0.4505,0.4495,0.4511,0.4444,0.4437,0.4431,0.4409,0.44,0.4502,0.4503,0.4503,0.4503,0,0.472,0.4693,0.4668,0.4644,0.4626,0.4594,0.4591,0.4573,0.4577,0.4572,0.453,0.4515,0.4486,0.4474,0.4477,0.4423,0.4431,0.4444,0.4468,0.4421,0.44,0.4391,0.45,0.45,0.4501,0.4501,0,0,0.4645,0.4624,0.4615,0.4604,0.4585,0.4563,0.453,0.4504,0.4488,0.4469,0.4441,0.4401,0.4414,0.4397,0.4398,0.4374,0.4325,0.439,0.4389,0.4377,0.4263,0.4252,0.4243,0.433,0.4329,0.4327,0.4265,0,0.4587,0.4532,0.4535,0.4482,0.4456,0.4469,0.444,0.4424,0.4419,0.4394,0.4387,0.4359,0.4378,0.4368,0.4345,0.4336,0.4301,0.434,0.4301,0.43,0.4305,0.4232,0.4221,0.4162,0.4257,0.4255,0.4254,0,0.4511,0.4492,0.4437,0.4422,0.4411,0.4386,0.4361,0.4339,0.4321,0.4318,0.4301,0.4305,0.427,0.4297,0.4248,0.4274,0.4258,0.4251,0.4249,0.4244,0.4273,0.4224,0.4144,0.4134,0.4241,0.4242,0.4243,0,0.4461,0.4421,0.4383,0.4373,0.4354,0.4336,0.4327,0.4311,0.4295,0.4273,0.4262,0.4236,0.4221,0.42,0.4197,0.4216,0.4147,0.4173,0.4142,0.4142,0.4126,0.4126,0.4041,0.4118,0.4118,0.4118,0.4119,0,0.4394,0.436,0.436,0.4336,0.4298,0.4301,0.4262,0.4255,0.424,0.4214,0.4223,0.4198,0.4196,0.417,0.4167,0.4126,0.412,0.4115,0.4115,0.4114,0.4114,0.4102,0.4106,0.4116,0.4117,0.4117,0.4117,0,0.4331,0.4329,0.4289,0.4275,0.4271,0.4243,0.423,0.4207,0.4203,0.4169,0.4162,0.4154,0.4123,0.4119,0.4083,0.4081,0.4031,0.4036,0.4038,0.4038,0.4007,0.4009,0.3909,0.3895,0.3983,0.3982,0.3982,0,0.4288,0.4262,0.4246,0.423,0.4221,0.4195,0.4179,0.418,0.4163,0.4141,0.4119,0.409,0.4067,0.4018,0.4007,0.398,0.3982,0.3949,0.3978,0.3978,0.398,0.3981,0.3978,0.3943,0.3942,0.3941,0.3941,0,0.4212,0.4212,0.419,0.4167,0.4148,0.4129,0.4112,0.4098,0.4097,0.4077,0.4047,0.4029,0.3993,0.3963,0.3936,0.3924,0.3931,0.3932,0.3923,0.3921,0.3923,0.392,0.4021,0.3934,0.3934,0.3935,0.3935,0.3936,0.4156,0.4134,0.4119,0.4093,0.4081,0.4064,0.4042,0.4035,0.4011,0.3983,0.3985,0.3951,0.3933,0.3897,0.3884,0.3856,0.3867,0.3854,0.3851,0.3847,0.3844,0.3929,0.3851,0.3852,0.3852,0.3852,0.3852,0,0.4079,0.4071,0.4047,0.4023,0.4003,0.4014,0.3995,0.3976,0.3947,0.3931,0.3908,0.3873,0.3844,0.3833,0.3804,0.3784,0.3786,0.3776,0.3777,0.3774,0.3837,0.3847,0.3775,0.3775,0.3775,0.3775,0.3775,0.3775,0.4037,0.3999,0.3998,0.3953,0.3945,0.3913,0.3901,0.3885,0.3872,0.3833,0.381,0.3803,0.3788,0.3758,0.3732,0.3729,0.3717,0.3705,0.3704,0.3762,0.377,0.3777,0.3786,0.3703,0.3703,0.3643,0.3643,0.3642]},{"header":{"parameterUnit":"m.s-1","parameterCategory":1,"la1":30.2991,"la2":30.254,"lo1":-89.0895,"lo2":-89.0444,"dy":0.0017,"dx":0.0017,"nx":28,"ny":28,"refTime":"2025-01-21T09:00:00:Z","depth":0,"parameterNumber":3,"parameterNumberName":"V-component_of_WINDS"},"data":[0,0,0,0,0,0,0,0,0,0,0,0,0,0,0,0,0,0,0,0,0,0,0,0,0,0,0,0,0,0,0,0,0,0,0,0,0,0,0,0,0,0,0,0,0,0,0,0,0,0,0,0,0,0,0,0,0,0,-9.0156,-9.0158,0,-9.0387,-9.039,-9.0393,-9.0324,-9.0319,-9.0314,-9.0309,-9.0538,-9.0548,-9.0558,0,0,0,0,0,0,0,0,0,0,0,0,0,-8.9646,-8.9656,-9.0155,-9.0158,-9.0161,-9.0387,-9.039,-9.0393,-9.0324,-9.0319,-9.0313,-9.0307,-9.0534,-9.0547,-9.0559,0,0,0,0,0,0,0,0,0,0,0,0,0,-8.9871,-8.9659,-9.0155,-9.0154,-9.0157,-9.0386,-9.039,-9.0394,-9.0326,-9.0318,-9.0311,-9.0304,-9.053,-9.0546,-9.0561,-9.0803,0,0,-9.061,-9.0616,0,0,0,0,0,0,0,0,-8.9859,-8.989,-9.0152,-9.0155,-9.0158,-9.0319,-9.0294,-9.0531,-9.0327,-9.0261,-9.0309,-9.0301,-9.047,-9.0491,-9.055,-9.0813,-9.0823,-9.0611,-9.0621,-9.0627,-9.0632,0,0,0,0,0,0,0,-8.9843,-8.988,-9.0247,-9.0155,-9.0159,-9.014,-9.0164,-9.0339,-9.0403,-9.0266,-9.0262,-9.0291,-9.0471,-9.0535,-9.0554,-9.0827,-9.061,-9.0625,-9.0634,-9.064,-9.13,-9.1308,0,0,0,0,0,0,-8.9827,-8.9867,-9.0239,-9.0254,-8.9988,-9.0155,-9.0182,-9.0275,-9.0401,-9.0413,-9.0297,-9.0287,-9.0511,-9.0536,-9.0562,-9.0854,-9.0627,-9.0642,-9.0651,-9.1292,-9.1302,-9.1311,0,0,0,0,0,0,-8.9816,-8.9861,-9.023,-9.006,-9.0105,-9.0172,-9.0276,-9.0283,-9.0347,-9.0424,-9.0434,-9.0351,-9.0506,-9.054,-9.0744,-9.0861,-9.0649,-9.0664,-9.1283,-9.1295,-9.1307,-9.1439,0,0,0,0,0,0,-8.9802,-8.9857,-8.9951,-9.0062,-9.0115,-9.0411,-9.0283,-9.0293,-9.0375,-9.0365,-9.0477,-9.0489,-9.0503,-9.0721,-9.076,-9.0879,-9.0676,-9.1273,-9.1289,-9.1303,-9.1424,-9.1454,-9.1479,0,0,0,0,0,-8.9784,-8.9977,-8.9956,-9.0002,-9.0234,-9.0418,-9.0447,-9.0462,-9.0385,-9.0479,-9.0529,-9.0485,-9.0842,-9.0743,-9.0786,-9.0911,-9.1265,-9.1284,-9.1302,-9.1412,-9.1448,-9.1478,0,0,0,0,0,0,-8.9874,-8.9991,-8.997,-9.0205,-9.0303,-9.0406,-9.0525,-9.05,-9.0619,-9.0603,-9.0614,-9.064,-9.085,-9.09,-9.0788,-9.1152,-9.1042,-9.1069,-9.1111,-9.1146,-9.1173,-9.1156,-9.0689,0,0,0,0,0,-8.9922,-9.0064,-9.0158,-9.0356,-9.0407,-9.0458,-9.0538,-9.0542,-9.0642,-9.0682,-9.0746,-9.0842,-9.0976,-9.1064,-9.1191,-9.1431,-9.1454,-9.1539,-9.1566,-9.1588,-9.1612,-9.1743,-9.1781,-9.137,-9.137,-9.137,0,0,-9.0021,-9.0103,-9.0191,-9.0377,-9.0453,-9.0598,-9.0493,-9.065,-9.0757,-9.0704,-9.0902,-9.0953,-9.1061,-9.1285,-9.1387,-9.1334,-9.1731,-9.1611,-9.1628,-9.164,-9.1765,-9.1804,-9.1839,-9.1383,-9.138,-9.1378,0,0,-9.0276,-9.0353,-9.0528,-9.0607,-9.0724,-9.0757,-9.0799,-9.0908,-9.0941,-9.114,-9.1104,-9.123,-9.146,-9.1539,-9.1609,-9.1897,-9.1861,-9.1937,-9.208,-9.2208,-9.2241,-9.2269,-9.2372,-9.2408,-9.1961,-9.1961,-9.1961,0,-9.0384,-9.0604,-9.0619,-9.0782,-9.0864,-9.0827,-9.1003,-9.1077,-9.1229,-9.1286,-9.1225,-9.1515,-9.1584,-9.1826,-9.1897,-9.1955,-9.2002,-9.1924,-9.2235,-9.2264,-9.2291,-9.2389,-9.2427,-9.197,-9.1969,-9.1968,-9.1967,0,-9.073,-9.0883,-9.101,-9.1162,-9.1258,-9.1425,-9.1465,-9.156,-9.1556,-9.1595,-9.1798,-9.1881,-9.2025,-9.2083,-9.2078,-9.2325,-9.2289,-9.2232,-9.2122,-9.2339,-9.2431,-9.2468,-9.1982,-9.1979,-9.1976,-9.1974,0,0,-9.1047,-9.1208,-9.1254,-9.1323,-9.1451,-9.1568,-9.1733,-9.1878,-9.1959,-9.2065,-9.2203,-9.24,-9.2349,-9.2429,-9.2433,-9.2546,-9.2769,-9.2475,-9.2478,-9.2527,-9.3045,-9.3087,-9.313,-9.2746,-9.2753,-9.2759,-9.3036,0,-9.1313,-9.1608,-9.1628,-9.1894,-9.2035,-9.2003,-9.2147,-9.224,-9.2281,-9.2405,-9.2448,-9.2588,-9.251,-9.2559,-9.2669,-9.2718,-9.2872,-9.2698,-9.2873,-9.2879,-9.2847,-9.3178,-9.3223,-9.348,-9.3072,-9.3078,-9.3082,0,-9.1662,-9.1784,-9.2065,-9.2174,-9.2234,-9.2364,-9.2498,-9.2618,-9.2722,-9.2744,-9.2835,-9.2824,-9.2991,-9.2877,-9.3107,-9.2989,-9.3061,-9.3097,-9.3107,-9.3123,-9.2993,-9.3203,-9.3562,-9.36,-9.3139,-9.3135,-9.313,0,-9.1865,-9.2098,-9.2297,-9.2357,-9.2489,-9.2582,-9.264,-9.2738,-9.2824,-9.294,-9.2996,-9.3129,-9.3202,-9.3304,-9.3329,-9.3243,-9.356,-9.3447,-9.3581,-9.3581,-9.3648,-9.3644,-9.4024,-9.3696,-9.3696,-9.3695,-9.3694,0,-9.216,-9.2333,-9.239,-9.2512,-9.2705,-9.2726,-9.2915,-9.2967,-9.3055,-9.3185,-9.3164,-9.3286,-9.3312,-9.3438,-9.3458,-9.3646,-9.3679,-9.37,-9.3703,-9.3702,-9.37,-9.3749,-9.3732,-9.3705,-9.3703,-9.3701,-9.3699,0,-9.2419,-9.2464,-9.2679,-9.2788,-9.282,-9.2957,-9.3049,-9.3166,-9.3205,-9.337,-9.341,-9.3471,-9.3619,-9.3654,-9.3829,-9.3843,-9.4066,-9.4051,-9.4032,-9.4031,-9.4163,-9.415,-9.4588,-9.4646,-9.4281,-9.4284,-9.4287,0,-9.2603,-9.2737,-9.2862,-9.295,-9.3014,-9.3154,-9.3243,-9.3268,-9.3361,-9.3491,-9.3592,-9.3738,-9.3857,-9.4095,-9.4153,-9.4287,-9.4275,-9.442,-9.4295,-9.429,-9.4277,-9.4269,-9.4282,-9.4443,-9.4447,-9.445,-9.4452,0,-9.2927,-9.2943,-9.3074,-9.3214,-9.3321,-9.3431,-9.3535,-9.3607,-9.3647,-9.3752,-9.3905,-9.3998,-9.4179,-9.4324,-9.4459,-9.4517,-9.4492,-9.4492,-9.453,-9.453,-9.4513,-9.4524,-9.4096,-9.4481,-9.4478,-9.4476,-9.4475,-9.4473,-9.3154,-9.3271,-9.3379,-9.3525,-9.3608,-9.3707,-9.3822,-9.3878,-9.4007,-9.4159,-9.4165,-9.4332,-9.4433,-9.4613,-9.4679,-9.4808,-9.4763,-9.4818,-9.4832,-9.4845,-9.4857,-9.4494,-9.4832,-9.4831,-9.4831,-9.483,-9.4829,0,-9.3476,-9.3545,-9.3679,-9.3829,-9.3944,-9.3914,-9.4029,-9.4126,-9.4274,-9.4372,-9.4491,-9.4667,-9.4808,-9.4879,-9.5018,-9.5108,-9.51,-9.5144,-9.5137,-9.5151,-9.4889,-9.4842,-9.5148,-9.5148,-9.5148,-9.5148,-9.5148,-9.5148,-9.3657,-9.3855,-9.3885,-9.4122,-9.4188,-9.4355,-9.4423,-9.4514,-9.4592,-9.4792,-9.491,-9.4957,-9.5044,-9.519,-9.5317,-9.5334,-9.5386,-9.5436,-9.5447,-9.5201,-9.5169,-9.5138,-9.5094,-9.5447,-9.5448,-9.5698,-9.57,-9.5702]}]]